ICE5431 BIRK-BIKF

Flight info

Callsign ICE5431
Flight time 0h 12m
Altitude 4000
Route ELVUM
Aircraft A21N/M-SDE2E3FGHIRWXY/LB1

Departure

Time 2026-05-08 12:02
Airport Reykjavík Domestic Airport (BIRK)

Arrival

Time 2026-05-08 12:14
Airport Keflavik International Airport (BIKF)
Time Latitude Longitude Altitude Speed Heading
2026-05-08 11:50 64.13168 -21.94238 42 ft 0 kts 17°
2026-05-08 11:58 64.13169 -21.94227 40 ft 0 kts 63°
2026-05-08 11:58 64.13167 -21.94217 40 ft 4 kts 99°
2026-05-08 11:58 64.13152 -21.94095 42 ft 9 kts 105°
2026-05-08 11:59 64.13154 -21.93894 48 ft 4 kts 86°
2026-05-08 11:59 64.13109 -21.93795 49 ft 16 kts 178°
2026-05-08 11:59 64.12964 -21.93772 49 ft 22 kts 175°
2026-05-08 11:59 64.12810 -21.93741 44 ft 23 kts 175°
2026-05-08 12:00 64.12643 -21.93707 38 ft 24 kts 175°
2026-05-08 12:00 64.12468 -21.93677 34 ft 26 kts 176°
2026-05-08 12:00 64.12281 -21.93644 28 ft 27 kts 173°
2026-05-08 12:00 64.12128 -21.93637 27 ft 6 kts 203°
2026-05-08 12:01 64.12108 -21.93619 27 ft 1 kts 101°
2026-05-08 12:01 64.12114 -21.93611 27 ft 1 kts 43°
2026-05-08 12:01 64.12123 -21.93612 28 ft 1 kts 355°
2026-05-08 12:01 64.12164 -21.93620 30 ft 9 kts 355°
2026-05-08 12:02 64.12423 -21.93661 32 ft 83 kts 355°
2026-05-08 12:02 64.13274 -21.93829 105 ft 154 kts 355°
2026-05-08 12:02 64.14361 -21.94033 985 ft 158 kts 354°
2026-05-08 12:02 64.15475 -21.94267 1986 ft 161 kts 348°
2026-05-08 12:03 64.16428 -21.95563 2404 ft 172 kts 305°
2026-05-08 12:03 64.16769 -21.98299 2667 ft 192 kts 269°
2026-05-08 12:03 64.16287 -22.01310 2899 ft 222 kts 233°
2026-05-08 12:03 64.15209 -22.04097 3334 ft 244 kts 229°
2026-05-08 12:04 64.13976 -22.06977 3901 ft 257 kts 227°
2026-05-08 12:04 64.12687 -22.09856 3952 ft 258 kts 226°
2026-05-08 12:04 64.11378 -22.12646 3984 ft 257 kts 225°
2026-05-08 12:04 64.10055 -22.15396 4006 ft 257 kts 225°
2026-05-08 12:05 64.08741 -22.18163 4012 ft 257 kts 226°
2026-05-08 12:05 64.07441 -22.20955 4020 ft 256 kts 226°
2026-05-08 12:05 64.06152 -22.23766 4016 ft 256 kts 226°
2026-05-08 12:05 64.04864 -22.26599 4015 ft 256 kts 227°
2026-05-08 12:06 64.03590 -22.29443 3998 ft 256 kts 227°
2026-05-08 12:06 64.02334 -22.32331 3998 ft 256 kts 228°
2026-05-08 12:06 64.01081 -22.35155 3987 ft 256 kts 227°
2026-05-08 12:06 63.99779 -22.37952 3959 ft 258 kts 220°
2026-05-08 12:07 63.98191 -22.39852 3825 ft 261 kts 198°
2026-05-08 12:07 63.96426 -22.40864 3721 ft 262 kts 195°
2026-05-08 12:07 63.94626 -22.41580 3582 ft 262 kts 190°
2026-05-08 12:07 63.92814 -22.42035 3501 ft 262 kts 185°
2026-05-08 12:08 63.90987 -22.42148 3288 ft 261 kts 183°
2026-05-08 12:08 63.89232 -22.42183 2829 ft 249 kts 183°
2026-05-08 12:08 63.87553 -22.42202 2538 ft 232 kts 182°
2026-05-08 12:08 63.85959 -22.42377 2325 ft 226 kts 195°
2026-05-08 12:09 63.84496 -22.43521 2119 ft 221 kts 204°
2026-05-08 12:09 63.83111 -22.44975 1909 ft 218 kts 218°
2026-05-08 12:09 63.82201 -22.47498 1821 ft 200 kts 246°
2026-05-08 12:09 63.81776 -22.50352 1863 ft 186 kts 263°
2026-05-08 12:10 63.81820 -22.53231 1995 ft 182 kts 282°
2026-05-08 12:10 63.82233 -22.55924 2097 ft 181 kts 297°
2026-05-08 12:10 63.82967 -22.58161 1980 ft 175 kts 314°
2026-05-08 12:10 63.83918 -22.59633 1849 ft 160 kts 332°
2026-05-08 12:11 63.84927 -22.60347 1780 ft 148 kts 348°
2026-05-08 12:11 63.85948 -22.60531 1772 ft 146 kts 357°
2026-05-08 12:11 63.86962 -22.60538 1729 ft 145 kts 358°
2026-05-08 12:11 63.87974 -22.60534 1699 ft 145 kts 358°
2026-05-08 12:12 63.88971 -22.60518 1613 ft 145 kts 358°
2026-05-08 12:12 63.89976 -22.60487 1508 ft 144 kts 358°
2026-05-08 12:12 63.90980 -22.60481 1390 ft 144 kts 358°
2026-05-08 12:12 63.91981 -22.60509 1263 ft 144 kts 357°
2026-05-08 12:13 63.92980 -22.60550 991 ft 143 kts 358°
2026-05-08 12:13 63.93975 -22.60557 742 ft 142 kts 359°
2026-05-08 12:13 63.94952 -22.60537 496 ft 142 kts 359°
2026-05-08 12:13 63.95936 -22.60541 283 ft 140 kts 358°
2026-05-08 12:14 63.96907 -22.60541 168 ft 135 kts 358°
2026-05-08 12:14 63.97749 -22.60542 172 ft 106 kts 360°
2026-05-08 12:14 63.98371 -22.60540 173 ft 62 kts
2026-05-08 12:14 63.98769 -22.60546 175 ft 31 kts 359°
2026-05-08 12:15 63.98834 -22.60673 175 ft 11 kts 313°
2026-05-08 12:15 63.98896 -22.60811 172 ft 14 kts 316°
2026-05-08 12:15 63.98972 -22.60928 171 ft 12 kts
2026-05-08 12:15 63.99057 -22.60939 169 ft 13 kts 354°
2026-05-08 12:16 63.99155 -22.60950 164 ft 14 kts 340°
2026-05-08 12:16 63.99174 -22.61064 161 ft 11 kts 275°
2026-05-08 12:16 63.99173 -22.61261 157 ft 15 kts 270°
2026-05-08 12:16 63.99174 -22.61648 148 ft 35 kts 269°
2026-05-08 12:17 63.99173 -22.62237 142 ft 37 kts 270°
2026-05-08 12:17 63.99181 -22.62645 142 ft 10 kts 304°
2026-05-08 12:17 63.99236 -22.62688 142 ft 8 kts 340°
2026-05-08 12:17 63.99289 -22.62746 142 ft 9 kts 355°
2026-05-08 12:18 63.99358 -22.62742 142 ft 14 kts
2026-05-08 12:18 63.99420 -22.62685 142 ft 8 kts 22°
2026-05-08 12:18 63.99469 -22.62651 142 ft 7 kts
2026-05-08 12:18 63.99483 -22.62614 142 ft 3 kts 78°
2026-05-08 12:19 63.99484 -22.62512 142 ft 2 kts 91°
2026-05-08 12:19 63.99485 -22.62472 142 ft 0 kts 89°